Regional Weather Roundup
Issued by NWS

Current Version | Previous Version | Text Only | Print | Product List | Glossary On
Versions: 1 2 3 4 5 6 7 8 9 10 11 12 13 14 15 16 17 18 19 20 21 22 23 24 25 26 27 28 29 30 31 32 33 34 35 36 37 38 39 40 41 42 43 44 45 46 47 48 49 50
000
ASUS46 KSEW 280310
RWRWA

WASHINGTON REGIONAL WEATHER ROUNDUP
NATIONAL WEATHER SERVICE SEATTLE WA
800 PM PDT MON JUL 27 2015

NOTE:"FAIR" INDICATES FEW OR NO CLOUDS BELOW 12,000 FEET WITH NO
SIGNIFICANT WEATHER AND/OR OBSTRUCTIONS TO VISIBILITY.

WAZ505-507>509-280400-
SEATTLE, TACOMA, EVERETT, AND VICINITY

CITY           SKY/WX    TMP DP  RH WIND       PRES   REMARKS
EVERETT        CLEAR     68  49  50 W7        30.23R
BOEING FIELD   MOCLDY    72  49  44 CALM      30.21R
RENTON         MOCLDY    71  50  47 NW6       30.20S
SEATAC AIRPORT MOCLDY    70  49  47 NW5       30.22S
JBLM-MCCHORD   CLOUDY    71  50  46 CALM      30.21R
PUYALLUP       CLOUDY    70  52  52 CALM      30.22S
BREMERTON      CLEAR     68  52  56 N8        30.24R
JBLM-FT LEWIS  CLOUDY    72  52  48 W10       30.20S
TACOMA NARROWS MOCLDY    70  48  45 NE5       30.21S
$$

WAZ001-503-506-510-514-515-280400-
NORTH INTERIOR

CITY           SKY/WX    TMP DP  RH WIND       PRES   REMARKS
BELLINGHAM     CLEAR     69  54  58 S5        30.20R
FRIDAY HARBOR  CLEAR     62  52  69 SW7       30.22S
EASTSOUND      CLEAR     68  50  52 SW9       30.18S
PORT ANGELES   PTCLDY    64  54  69 NW7       30.24R
PORT TOWNSEND  FAIR      64  54  68 CALM      30.22R
NAS WHIDBEY    PTCLDY    63  56  78 W7        30.26R
ARLINGTON      CLEAR     70  48  46 NW8       30.22R
BURLINGTON     CLEAR     68  50  52 SW6       30.21R
$$

WAZ020-022-039-040-504-511-512-280400-
SOUTHWEST INTERIOR

CITY           SKY/WX    TMP DP  RH WIND       PRES   REMARKS
SHELTON        CLOUDY    69  47  45 W12       30.20R
OLYMPIA        CLEAR     69  50  50 W5        30.22R
CHEHALIS       FAIR      70  54  56 N5        30.23R
KELSO          CLEAR    N/A N/A N/A W8G16     30.24S
VANCOUVER      CLEAR     73  49  42 N9G18     30.19R
SCAPPOOSE, OR  CLEAR     72  50  45 NW12G17   30.20R
PORTLAND, OR   PTCLDY    73  52  47 NW8       30.19S
$$

WAZ021-516-517-280400-
WASHINGTON COAST

CITY           SKY/WX    TMP DP  RH WIND       PRES   REMARKS
FORKS          PTCLDY    61  56  83 NW5       30.27R
HOQUIAM        PTCLDY    63  54  72 W14       30.26R
ASTORIA, OR    CLEAR     65  54  67 NW14      30.26R
$$

WAZ019-023-024-040-518-519-280400-
CASCADE MOUNTAINS AND COLUMBIA GORGE

CITY           SKY/WX    TMP DP  RH WIND       PRES   REMARKS
TROUTDALE, OR  CLEAR     73  49  42 NW8       30.17S
THE DALLES, OR CLEAR     75  43  31 W16G25    30.11R
$$

WAZ026-027-041>044-520-521-280400-
EAST SLOPES

CITY           SKY/WX    TMP DP  RH WIND       PRES   REMARKS
OMAK           MOCLDY    73  37  27 N12G20    30.05R
WENATCHEE      CLEAR     74  39  28 NW23G30   30.07R
ELLENSBURG     CLEAR     68  42  38 NW28G37   30.12R
YAKIMA         PTCLDY    73  39  29 NW21G29   30.12R
$$

WAZ028-034-035-280400-
COLUMBIA BASIN

CITY           SKY/WX    TMP DP  RH WIND       PRES   REMARKS
EPHRATA        MOCLDY    78  38  23 NW13      30.03R
MOSES LAKE     CLEAR     75  44  33 SW12      30.05R
PASCO          MOCLDY    80  37  21 W10       30.05R
HERMISTON, OR  CLEAR     76  45  33 W13       30.07R
$$

WAZ036>038-280400-
NORTHEAST WASHINGTON

CITY           SKY/WX    TMP DP  RH WIND       PRES   REMARKS
SPOKANE GEIGER MOCLDY    69  38  32 SW7       30.07R
SPOKANE FELTS  MOCLDY    72  38  29 SW8       30.06R
FAIRCHILD AFB  MOCLDY    67  38  34 SW3       30.07R
COEURDALENE,ID MOCLDY    66  41  39 SW6       30.06R
DEER PARK      PTCLDY    68  41  37 MISG      30.06R
$$

WAZ029>033-280400-
SOUTHEAST WASHINGTON

CITY           SKY/WX    TMP DP  RH WIND       PRES   REMARKS
PULLMAN        MOCLDY    63  44  50 SW6       30.12S
LEWISTON, ID   CLOUDY    73  37  27 W10       30.07S
WALLA WALLA    CLEAR     75  39  27 SW9       30.09R
PENDLETON, OR  CLEAR     72  37  28 NW7       30.10R
$$


USA.gov is the U.S. government's official web portal to all federal, state and local government web resources and services.